Wind_Speed
2 2 3 2 3 3 3 3 3 3 3 3 3 3 3 3 3 3 3 3 3 3 3 3 2 2 2 2 2 2 1 2 1 1 0 0 0 1 1 0 1 1 1
1 1 1 1 1 1 2 2 2 2 3 3 3 3 2 2 2 3 2 2 2 2 2 2 2 2 2 1 1 1 1 0 1 1 1 1 1 1 1 1 1 2 1
1 1 1 0 0 1 1 1 2 2 2 2 2 2 2 1 1 2 2 2 1 1 1 1 2 2 2 1 1 1 1 1 1 2 2 3 3 2 2 3 3 2 2
0 0 0 1 1 0 0 1 1 1 1 1 1 1 1 1 1 1 1 1 1 1 1 2 2 2 3 3 3 2 2 2 2 3 3 4 4 3 3 3 4 4 3
1 1 1 1 0 0 0 1 1 1 1 2 1 1 0 1 1 0 0 1 2 2 2 2 2 2 3 4 4 3 3 4 4 4 4 5 5 5 4 4 4 4 4
3 2 2 2 2 1 1 1 2 2 2 2 2 1 1 1 1 1 1 1 2 3 3 3 3 3 4 4 4 4 5 5 5 5 5 5 5 5 5 5 5 5 5
3 3 3 3 2 2 2 2 2 2 2 3 3 2 2 1 2 2 2 2 2 3 3 3 4 4 4 5 5 5 5 5 5 5 5 5 5 6 6 6 6 7 7
4 4 3 3 3 3 3 3 3 3 3 3 4 3 3 3 2 2 2 2 2 3 4 4 5 5 5 6 6 5 5 6 5 5 5 5 5 6 6 7 7 7 7
5 5 4 4 4 4 4 4 4 4 4 4 4 4 4 4 4 3 3 3 3 4 4 5 5 6 6 6 6 6 6 6 6 6 6 6 5 6 6 7 7 7 8
6 6 6 5 5 5 5 5 5 5 4 5 5 4 4 4 4 4 4 4 4 5 5 5 6 6 7 7 7 6 6 6 6 6 6 6 6 7 7 7 7 7 7
7 6 5 5 6 6 6 6 6 6 5 6 5 5 5 5 5 5 5 5 5 5 6 6 6 7 7 7 7 6 6 6 6 6 6 7 7 7 7 8 8 7 8
8 8 7 6 6 7 6 7 7 6 6 6 6 6 6 6 6 6 6 6 6 6 6 6 6 7 7 7 7 7 7 7 7 7 7 7 7 7 8 8 8 8 8
11 10 9 8 8 8 7 7 7 7 7 7 7 7 7 6 7 7 7 7 7 7 7 6 6 7 7 7 7 7 7 7 7 7 7 8 8 8 9 9 9 9 10
12 12 10 9 9 9 9 8 8 9 8 8 8 7 7 7 7 8 8 8 8 7 7 7 7 7 7 7 7 7 7 8 8 8 8 8 8 9 9 10 10 10 10
12 12 12 11 10 10 10 10 10 10 9 9 8 8 8 7 7 8 8 8 8 8 7 8 7 7 7 7 7 7 7 8 8 8 8 9 9 9 9 10 9 9 10
13 13 13 12 11 11 11 12 11 10 9 9 9 9 8 8 8 8 9 9 9 8 8 8 8 8 7 7 7 7 8 8 8 8 9 9 9 9 10 10 10 9 10
13 12 13 13 13 13 12 12 12 11 10 9 9 9 8 8 9 9 9 9 9 8 8 8 8 7 7 7 7 8 8 9 9 9 9 10 10 9 9 9 9 10 10
13 13 13 13 13 13 12 11 11 11 10 10 10 9 8 8 8 8 8 8 9 8 8 7 8 8 8 8 8 9 9 9 9 9 10 10 9 9 10 10 10 10 10
13 13 13 13 13 13 12 12 11 11 10 10 10 9 9 9 8 9 8 8 8 8 7 8 8 9 9 9 9 9 10 10 10 10 10 10 9 10 10 10 10 10 10
12 13 13 13 13 13 13 13 12 12 12 11 11 10 10 9 9 9 8 8 8 8 8 8 9 9 9 10 10 10 10 10 10 10 10 10 10 10 10 10 10 10 10
12 13 13 13 13 14 14 13 13 13 12 12 12 12 11 10 9 9 8 8 8 9 9 9 8 9 9 9 10 10 10 10 9 9 10 10 10 10 10 10 10 10 9
12 12 12 12 13 14 14 13 13 13 13 13 12 12 11 10 10 10 10 9 9 9 9 9 8 9 9 10 10 10 9 9 9 9 9 10 10 10 10 10 10 9 9
12 12 12 12 12 13 14 13 13 13 13 12 12 12 12 11 11 11 11 10 10 10 9 9 9 10 10 10 10 10 9 8 9 9 9 9 9 9 9 10 9 9 9
13 13 12 12 12 12 12 13 13 14 13 13 12 12 12 12 12 12 12 11 11 10 10 9 10 10 10 10 10 10 9 8 7 8 9 9 9 8 9 9 9 9 9
13 13 13 12 12 12 12 13 13 13 14 14 13 13 13 13 12 12 12 12 11 11 11 11 11 11 11 11 10 10 9 9 8 7 8 9 9 9 9 9 9 9 10
12 13 13 12 12 13 12 12 13 13 14 14 14 14 14 14 14 13 13 12 12 11 11 11 11 12 11 11 10 10 9 10 9 8 8 9 9 9 10 9 9 9 9
Wind_Direction
98 78 84 95 90 80 72 76 83 88 94 94 76 72 75 78 80 81 92 97 93 89 96 93 88 93 96 96 100 99 102 97 69 46 187 214 346 1 13 295 330 300 260
117 79 80 106 102 94 89 83 86 98 106 94 81 71 63 61 72 69 76 85 75 76 92 82 65 62 55 46 54 62 49 56 71 299 269 291 295 293 288 287 289 281 246
115 40 43 80 102 78 97 103 101 103 112 97 81 75 70 62 74 61 81 81 58 53 74 59 33 30 19 10 338 318 331 345 314 297 281 281 287 284 282 278 275 273 276
222 12 44 43 358 2 71 129 127 128 136 137 113 100 97 79 47 35 59 47 34 40 27 9 1 358 354 343 334 322 312 301 293 287 278 277 279 278 278 275 269 270 272
262 282 255 297 331 183 151 157 172 173 181 169 162 144 49 11 346 4 24 21 17 10 357 341 334 326 328 333 329 321 308 298 289 284 282 277 277 277 276 271 266 261 261
272 261 257 251 251 218 201 186 194 198 204 200 203 222 288 321 317 317 311 339 351 347 336 328 325 324 321 323 322 314 306 298 290 286 280 279 276 272 274 271 265 259 257
274 262 250 244 241 222 233 232 225 215 209 213 219 230 248 281 289 304 311 315 331 337 336 330 330 329 327 321 318 310 304 301 295 289 283 280 278 272 273 272 267 261 257
266 260 247 247 242 237 244 247 243 237 228 229 228 233 245 263 268 282 302 301 310 321 326 325 327 326 325 325 322 311 304 302 300 298 295 289 280 276 276 274 267 260 257
266 262 248 248 251 245 246 250 249 245 237 233 235 241 247 251 255 267 290 298 302 308 315 318 321 321 324 326 322 314 308 304 302 306 303 297 289 283 280 276 268 264 261
259 262 249 251 252 253 251 253 251 245 238 236 241 243 243 250 254 262 281 293 297 302 310 315 317 321 324 327 326 320 313 312 307 304 299 294 292 286 281 278 270 266 264
254 260 256 250 246 249 253 249 248 246 248 241 236 245 252 256 260 264 276 287 294 301 306 309 313 318 320 322 322 321 320 317 309 304 299 292 288 286 284 280 273 270 268
245 249 254 255 252 250 249 247 248 249 249 241 238 247 258 261 262 267 276 286 289 295 301 306 312 314 316 317 319 321 319 317 310 302 298 293 289 287 284 282 277 275 272
244 247 251 253 251 249 249 254 252 252 248 248 247 255 259 266 263 266 276 282 285 288 295 300 307 311 314 316 318 317 315 313 307 304 299 296 294 289 286 282 279 277 274
244 245 248 251 251 250 249 255 257 254 254 255 252 253 261 269 269 268 273 277 281 288 292 298 305 308 315 319 317 316 316 312 308 306 300 298 296 292 288 283 279 278 276
243 244 245 246 249 252 254 257 255 257 256 254 254 257 263 267 269 268 269 274 278 283 286 294 297 300 307 312 312 314 316 314 311 308 303 299 296 293 290 287 283 279 278
246 244 246 247 251 255 259 260 257 255 254 255 255 259 262 262 261 269 273 272 277 278 281 287 288 294 302 307 307 309 313 314 311 307 303 299 297 297 293 288 284 282 277
250 248 248 250 252 253 257 260 254 252 251 253 256 257 262 264 265 267 274 276 278 280 282 282 286 292 298 305 306 309 310 311 308 306 303 301 300 299 297 292 287 284 281
251 249 251 252 250 250 252 254 253 254 252 253 257 257 262 267 273 272 270 276 279 281 282 283 287 291 298 304 308 309 310 310 308 306 303 302 300 299 296 292 288 286 283
251 250 251 251 249 248 249 250 250 252 253 252 255 255 260 264 271 272 271 275 277 279 284 286 288 290 294 298 303 308 310 310 309 307 306 304 301 298 295 292 289 288 282
248 250 251 250 247 247 247 248 248 251 251 249 249 252 259 263 266 266 267 270 273 279 285 287 291 291 292 294 298 302 307 310 309 307 305 304 302 299 297 294 292 289 285
250 250 249 246 246 247 247 247 248 249 250 249 250 249 251 255 261 262 264 268 274 280 285 287 289 290 290 295 296 299 304 307 304 305 305 305 305 301 300 297 294 291 285
249 248 247 249 250 247 246 246 247 248 249 251 252 251 250 253 257 260 264 268 274 279 281 282 286 291 293 297 297 302 307 308 305 303 305 306 306 302 300 298 296 294 291
247 246 245 246 249 246 244 245 246 247 248 252 253 252 252 252 257 260 261 264 271 275 280 283 287 290 293 296 295 299 304 308 306 307 307 307 306 304 303 304 301 297 290
247 247 248 247 246 244 243 245 247 246 247 250 252 252 252 255 258 262 261 264 268 270 275 281 284 287 291 293 295 295 298 303 299 304 306 307 305 303 305 307 303 297 292
247 245 247 246 245 245 243 244 249 250 250 251 251 251 252 255 258 262 265 264 266 269 273 276 280 284 288 289 291 293 296 299 298 301 301 303 301 301 302 303 301 296 293
250 245 245 246 244 242 242 245 247 248 251 253 254 254 255 255 257 261 264 266 265 267 270 275 278 281 284 288 290 289 293 296 296 297 298 300 300 300 303 304 298 295 295
Height
5899 5898 5898 5897 5897 5897 5897 5897 5897 5897 5897 5898 5898 5898 5897 5897 5897 5896 5896 5896 5895 5895 5895 5894 5894 5893 5893 5893 5892 5892 5892 5891 5891 5890 5890 5890 5889 5889 5888 5888 5888 5887 5887
5899 5898 5898 5898 5898 5897 5897 5897 5898 5898 5898 5898 5898 5898 5898 5898 5897 5897 5896 5896 5896 5895 5895 5894 5894 5894 5893 5893 5892 5892 5891 5891 5890 5890 5890 5889 5889 5889 5888 5888 5888 5887 5886
5899 5899 5898 5898 5898 5898 5897 5898 5898 5899 5899 5899 5899 5899 5898 5898 5898 5897 5897 5896 5896 5895 5895 5894 5894 5894 5893 5893 5892 5892 5891 5890 5890 5890 5889 5889 5888 5888 5888 5887 5887 5886 5886
5899 5899 5899 5898 5898 5898 5898 5898 5899 5899 5899 5899 5899 5899 5899 5898 5898 5898 5897 5897 5896 5895 5895 5895 5894 5894 5893 5893 5892 5891 5891 5890 5890 5889 5889 5888 5888 5887 5887 5887 5886 5886 5886
5899 5899 5899 5899 5898 5898 5899 5899 5899 5899 5899 5899 5899 5899 5899 5899 5898 5898 5897 5897 5896 5896 5895 5895 5894 5893 5893 5892 5891 5891 5890 5889 5889 5888 5887 5887 5887 5886 5886 5886 5885 5885 5885
5898 5898 5898 5898 5898 5899 5899 5899 5899 5899 5899 5899 5899 5899 5899 5899 5899 5898 5898 5897 5896 5896 5895 5894 5894 5893 5892 5892 5891 5890 5889 5888 5888 5887 5886 5886 5885 5885 5885 5885 5884 5884 5884
5898 5898 5898 5898 5898 5899 5899 5899 5899 5899 5899 5899 5899 5899 5899 5899 5898 5898 5898 5897 5896 5895 5895 5894 5894 5893 5892 5891 5890 5889 5888 5887 5886 5886 5885 5885 5884 5884 5883 5883 5883 5883 5883
5898 5898 5897 5898 5898 5898 5898 5899 5899 5899 5899 5899 5898 5899 5899 5899 5898 5898 5897 5897 5896 5895 5895 5894 5893 5892 5891 5890 5889 5888 5887 5886 5885 5885 5884 5884 5883 5883 5882 5882 5882 5881 5881
5896 5897 5897 5897 5897 5898 5898 5898 5898 5898 5898 5898 5898 5898 5898 5898 5898 5898 5897 5896 5896 5895 5894 5893 5893 5892 5891 5890 5888 5887 5886 5885 5885 5884 5883 5882 5882 5881 5881 5881 5880 5880 5880
5895 5896 5896 5896 5896 5897 5897 5897 5897 5897 5897 5898 5898 5898 5898 5897 5897 5897 5897 5896 5895 5894 5894 5893 5892 5891 5890 5888 5887 5886 5885 5884 5884 5883 5882 5881 5881 5880 5879 5879 5879 5878 5878
5894 5894 5894 5895 5895 5895 5896 5896 5896 5896 5896 5896 5897 5897 5897 5896 5896 5896 5896 5895 5894 5893 5893 5892 5891 5890 5889 5887 5886 5885 5884 5883 5882 5881 5881 5880 5879 5879 5878 5877 5877 5877 5876
5893 5893 5893 5893 5894 5894 5894 5895 5895 5895 5895 5895 5895 5895 5895 5895 5895 5895 5894 5894 5893 5892 5891 5890 5889 5888 5887 5886 5885 5884 5883 5882 5881 5880 5879 5878 5878 5877 5876 5876 5875 5875 5875
5891 5891 5892 5892 5892 5893 5893 5893 5893 5894 5894 5894 5894 5894 5894 5893 5893 5893 5893 5892 5891 5891 5890 5889 5888 5887 5886 5885 5884 5882 5881 5880 5879 5878 5878 5877 5876 5875 5874 5874 5873 5873 5873
5889 5889 5890 5890 5890 5891 5891 5891 5891 5892 5892 5892 5892 5892 5892 5892 5892 5891 5891 5890 5890 5889 5888 5888 5887 5886 5885 5884 5882 5881 5880 5879 5878 5877 5876 5875 5874 5873 5873 5872 5871 5871 5870
5886 5887 5887 5888 5888 5889 5889 5889 5889 5890 5890 5891 5891 5890 5890 5890 5890 5890 5889 5889 5888 5888 5887 5886 5885 5884 5883 5882 5881 5880 5879 5877 5876 5875 5874 5873 5872 5871 5870 5870 5869 5869 5868
5883 5884 5885 5886 5886 5886 5887 5887 5887 5887 5888 5888 5888 5889 5888 5888 5888 5888 5887 5887 5886 5886 5885 5884 5884 5883 5882 5881 5880 5878 5877 5876 5875 5873 5872 5871 5870 5869 5868 5867 5867 5866 5866
5880 5881 5882 5882 5883 5884 5884 5885 5885 5885 5886 5886 5886 5886 5886 5886 5886 5885 5885 5885 5885 5884 5883 5883 5882 5881 5880 5879 5878 5877 5876 5874 5873 5871 5870 5869 5868 5867 5866 5865 5864 5863 5863
5877 5878 5879 5879 5880 5881 5881 5882 5882 5883 5883 5884 5884 5884 5884 5884 5884 5884 5884 5883 5883 5882 5881 5881 5880 5880 5879 5878 5877 5875 5874 5873 5871 5870 5868 5867 5866 5865 5864 5863 5862 5860 5860
5874 5875 5875 5876 5877 5878 5878 5879 5880 5880 5880 5881 5882 5882 5882 5882 5882 5882 5882 5881 5880 5880 5879 5879 5878 5877 5877 5876 5875 5874 5872 5871 5869 5868 5866 5865 5864 5863 5862 5861 5860 5858 5857
5871 5871 5872 5873 5874 5875 5875 5876 5877 5877 5878 5878 5879 5879 5879 5879 5879 5879 5879 5879 5878 5878 5877 5877 5876 5875 5874 5874 5873 5871 5870 5869 5867 5866 5864 5863 5862 5861 5859 5858 5857 5856 5855
5868 5868 5869 5870 5871 5871 5872 5873 5873 5874 5875 5875 5876 5876 5876 5877 5877 5877 5877 5876 5876 5876 5875 5874 5874 5873 5872 5871 5871 5869 5868 5867 5865 5864 5862 5861 5860 5859 5857 5856 5855 5854 5853
5865 5865 5866 5867 5867 5868 5869 5870 5870 5871 5872 5872 5873 5873 5873 5874 5874 5874 5874 5874 5874 5873 5873 5872 5871 5871 5870 5869 5868 5867 5866 5865 5863 5862 5861 5859 5858 5856 5855 5854 5853 5851 5850
5862 5862 5863 5864 5864 5865 5866 5867 5867 5868 5869 5869 5870 5870 5871 5871 5871 5872 5872 5871 5871 5871 5870 5870 5869 5869 5868 5867 5866 5866 5864 5863 5861 5860 5859 5857 5856 5854 5853 5852 5850 5849 5848
5858 5859 5860 5861 5861 5862 5863 5864 5864 5865 5866 5866 5867 5867 5868 5868 5868 5868 5869 5869 5868 5868 5868 5867 5867 5866 5866 5865 5864 5863 5862 5861 5860 5858 5857 5855 5854 5852 5851 5850 5848 5847 5846
5855 5856 5856 5857 5858 5859 5860 5861 5862 5862 5863 5863 5864 5864 5864 5865 5865 5865 5865 5866 5866 5865 5865 5865 5864 5864 5863 5863 5862 5861 5860 5859 5857 5856 5855 5854 5852 5851 5849 5847 5846 5845 5844
5851 5852 5853 5854 5855 5856 5857 5858 5858 5859 5860 5860 5860 5861 5861 5861 5862 5862 5862 5862 5862 5862 5862 5862 5862 5861 5860 5860 5859 5858 5857 5856 5855 5854 5853 5851 5850 5849 5847 5845 5844 5842 5841